[[{"header":{"parameterUnit":"m.s-1","parameterCategory":2,"la1":30.2991,"la2":30.254,"lo1":-89.0895,"lo2":-89.0444,"dy":0.0017,"dx":0.0017,"nx":28,"ny":28,"refTime":"2023-07-29T21:00:00:Z","depth":"0","parameterNumber":2,"parameterNumberName":"U-component_of_CURRENTS"},"data":[0,0,0,0,0,0,0,0,0,0,0,0,0,0,0,0,0,0,0,0,0,0,0,0,0,0,0,0,0,0,0,0,0,0,0,0,0,0,0,0,0,0,0,0,0,0,0,0,0,0,0,0,0,0,0,0,0,0,0.2439,0.244,0,0.2544,0.2545,0.2546,0.2532,0.253,0.2529,0.2527,0.2617,0.2621,0.2625,0,0,0,0,0,0,0,0,0,0,0,0,0,0.2267,0.227,0.2439,0.244,0.2442,0.2544,0.2545,0.2546,0.2532,0.253,0.2528,0.2526,0.2616,0.2621,0.2625,0,0,0,0,0,0,0,0,0,0,0,0,0,0.2352,0.2271,0.2439,0.2448,0.245,0.2543,0.2545,0.2547,0.2532,0.253,0.2528,0.2525,0.2614,0.262,0.2626,0.271,0,0,0.2644,0.2646,0,0,0,0,0,0,0,0,0.2348,0.2358,0.2445,0.2448,0.245,0.2523,0.2518,0.2601,0.2533,0.25,0.2527,0.2524,0.2587,0.2595,0.2619,0.2714,0.2718,0.2644,0.2648,0.265,0.2652,0,0,0,0,0,0,0,0.2342,0.2354,0.2479,0.2447,0.245,0.2461,0.247,0.2534,0.2554,0.2502,0.2502,0.2517,0.2588,0.2613,0.262,0.272,0.2644,0.2649,0.2653,0.2655,0.3004,0.301,0,0,0,0,0,0,0.2333,0.2349,0.2476,0.2482,0.2393,0.2466,0.2476,0.2501,0.2554,0.256,0.2519,0.2516,0.2604,0.2614,0.2624,0.2793,0.265,0.2656,0.2659,0.2999,0.3006,0.3012,0,0,0,0,0,0,0.2329,0.2344,0.2471,0.2418,0.2435,0.2471,0.25,0.2505,0.2525,0.2567,0.2572,0.2533,0.2603,0.2615,0.2708,0.2793,0.2658,0.2664,0.2992,0.3001,0.3009,0.3089,0,0,0,0,0,0,0.2324,0.2342,0.236,0.2418,0.2438,0.2541,0.2503,0.2508,0.2539,0.2536,0.2582,0.2588,0.2602,0.27,0.2714,0.2799,0.2668,0.2984,0.2996,0.3006,0.3079,0.31,0.3117,0,0,0,0,0,0.2317,0.2355,0.236,0.2376,0.2461,0.2543,0.2556,0.2571,0.2542,0.2574,0.2612,0.2586,0.2779,0.2709,0.2724,0.2813,0.2979,0.2993,0.3005,0.3071,0.3096,0.3116,0,0,0,0,0,0,0.23,0.2359,0.2366,0.2421,0.2483,0.2541,0.2572,0.2579,0.2634,0.2624,0.2644,0.2657,0.2782,0.2797,0.2718,0.2955,0.2883,0.29,0.2928,0.2952,0.297,0.3021,0.2673,0,0,0,0,0,0.2304,0.2338,0.2407,0.2453,0.2483,0.2526,0.2558,0.2574,0.2628,0.2647,0.268,0.2747,0.2855,0.2893,0.2976,0.3087,0.3154,0.3166,0.3185,0.32,0.3261,0.3452,0.3493,0.3054,0.3054,0.3054,0,0,0.2313,0.2346,0.2369,0.245,0.2491,0.2578,0.254,0.2598,0.2679,0.2653,0.2759,0.281,0.2904,0.3042,0.3099,0.3054,0.3354,0.3217,0.3228,0.3282,0.347,0.3513,0.3551,0.3063,0.3062,0.306,0,0,0.2378,0.2378,0.2449,0.2494,0.2564,0.2604,0.2622,0.269,0.2725,0.2834,0.2864,0.298,0.3082,0.32,0.3269,0.3453,0.3453,0.3457,0.3583,0.3767,0.3804,0.3838,0.3932,0.3974,0.3458,0.3458,0.3458,0,0.2405,0.2493,0.2485,0.2567,0.2622,0.2622,0.2731,0.2781,0.2869,0.2938,0.2878,0.3138,0.3189,0.3432,0.3496,0.3499,0.3561,0.347,0.3789,0.3825,0.3858,0.3947,0.3992,0.3464,0.3463,0.3462,0.3462,0,0.254,0.26,0.2642,0.2747,0.2798,0.2882,0.2946,0.3007,0.3027,0.3092,0.3289,0.3373,0.3532,0.3572,0.3588,0.3866,0.3816,0.3787,0.3716,0.3906,0.3988,0.4033,0.3471,0.3469,0.3468,0.3466,0,0,0.2681,0.2736,0.2759,0.2818,0.2899,0.2965,0.3087,0.3241,0.3338,0.3417,0.3584,0.3783,0.3796,0.3884,0.3921,0.408,0.4338,0.403,0.4037,0.4097,0.4689,0.4522,0.4553,0.4346,0.4355,0.4363,0.4632,0,0.2828,0.2976,0.2976,0.3134,0.3226,0.3235,0.3347,0.3454,0.3529,0.3668,0.3794,0.395,0.3923,0.399,0.4161,0.429,0.447,0.4265,0.4523,0.4531,0.4339,0.4608,0.4488,0.4709,0.4676,0.4683,0.4689,0,0.3017,0.3078,0.3238,0.3323,0.3366,0.3447,0.3608,0.3707,0.3874,0.3926,0.4089,0.414,0.4394,0.4319,0.4684,0.4539,0.4663,0.4748,0.4759,0.4623,0.4453,0.4531,0.4792,0.4714,0.4758,0.4753,0.4748,0,0.3147,0.3282,0.3402,0.3434,0.3526,0.3604,0.3668,0.3806,0.3879,0.4094,0.4146,0.4419,0.4511,0.4759,0.4861,0.4818,0.5204,0.5161,0.5148,0.5131,0.5101,0.5066,0.5308,0.5507,0.5506,0.5505,0.5504,0,0.3317,0.3415,0.3461,0.352,0.3645,0.3692,0.3834,0.3919,0.4047,0.413,0.4276,0.4371,0.4628,0.4803,0.4962,0.5153,0.5294,0.526,0.5245,0.5115,0.508,0.5059,0.5004,0.5515,0.5513,0.5511,0.5509,0,0.3413,0.3465,0.3575,0.3666,0.3697,0.3772,0.3841,0.3921,0.4046,0.4156,0.4214,0.4388,0.4607,0.4808,0.5162,0.5227,0.5349,0.5495,0.5259,0.5213,0.5114,0.5066,0.5103,0.4983,0.5605,0.5604,0.5602,0,0.3455,0.3528,0.3619,0.3643,0.3671,0.3764,0.3799,0.3912,0.3962,0.4131,0.4169,0.4388,0.4489,0.488,0.5098,0.5384,0.5281,0.5407,0.5354,0.5173,0.5114,0.4865,0.4745,0.5341,0.5337,0.5335,0.5332,0,0.3482,0.3513,0.3562,0.3621,0.3661,0.37,0.376,0.3791,0.3902,0.3983,0.407,0.4173,0.4491,0.4699,0.5007,0.5175,0.517,0.5352,0.531,0.5081,0.47,0.4548,0.5015,0.5307,0.5309,0.5311,0.5313,0.5314,0.3439,0.3461,0.3509,0.3563,0.3591,0.3599,0.3604,0.3644,0.3693,0.3761,0.3917,0.4036,0.4397,0.4814,0.4908,0.5047,0.4996,0.5072,0.5077,0.4874,0.4631,0.4971,0.5124,0.5126,0.5127,0.5128,0.5129,0,0.3363,0.3398,0.3436,0.3466,0.3453,0.3516,0.3533,0.351,0.3499,0.3614,0.3689,0.4019,0.4292,0.4582,0.491,0.4852,0.4654,0.477,0.4497,0.4432,0.4929,0.4786,0.4695,0.4695,0.4696,0.4696,0.4696,0.4696,0.3317,0.3334,0.3373,0.3327,0.3337,0.3289,0.3286,0.3255,0.3314,0.3378,0.3511,0.3668,0.4111,0.4647,0.4786,0.4715,0.4435,0.4229,0.4198,0.4658,0.4687,0.4715,0.4572,0.4439,0.4438,0.3551,0.3545,0.3541]},{"header":{"parameterUnit":"m.s-1","parameterCategory":2,"la1":30.2991,"la2":30.254,"lo1":-89.0895,"lo2":-89.0444,"dy":0.0017,"dx":0.0017,"nx":28,"ny":28,"refTime":"2023-07-29T21:00:00:Z","depth":"0","parameterNumber":3,"parameterNumberName":"V-component_of_CURRENTS"},"data":[0,0,0,0,0,0,0,0,0,0,0,0,0,0,0,0,0,0,0,0,0,0,0,0,0,0,0,0,0,0,0,0,0,0,0,0,0,0,0,0,0,0,0,0,0,0,0,0,0,0,0,0,0,0,0,0,0,0,-0.0232,-0.0232,0,-0.0283,-0.0283,-0.0284,-0.0352,-0.0353,-0.0354,-0.0355,-0.0366,-0.0365,-0.0364,0,0,0,0,0,0,0,0,0,0,0,0,0,-0.0161,-0.0162,-0.0232,-0.0232,-0.0233,-0.0283,-0.0283,-0.0284,-0.0351,-0.0353,-0.0354,-0.0356,-0.0366,-0.0365,-0.0364,0,0,0,0,0,0,0,0,0,0,0,0,0,-0.0199,-0.0162,-0.0232,-0.0273,-0.0277,-0.0283,-0.0283,-0.0284,-0.0351,-0.0353,-0.0355,-0.0356,-0.0366,-0.0365,-0.0364,-0.0321,0,0,-0.036,-0.036,0,0,0,0,0,0,0,0,-0.0197,-0.0201,-0.0266,-0.027,-0.0275,-0.0313,-0.0262,-0.0295,-0.0351,-0.0322,-0.0355,-0.0357,-0.0344,-0.0344,-0.035,-0.0322,-0.0322,-0.036,-0.036,-0.0359,-0.0359,0,0,0,0,0,0,0,-0.0194,-0.0199,-0.0251,-0.0267,-0.0272,-0.0278,-0.0286,-0.0269,-0.0321,-0.0325,-0.033,-0.0336,-0.0346,-0.0351,-0.035,-0.0322,-0.036,-0.0359,-0.0358,-0.0358,-0.015,-0.0145,0,0,0,0,0,0,-0.0189,-0.0197,-0.025,-0.0253,-0.024,-0.0278,-0.0287,-0.0299,-0.0322,-0.0328,-0.0335,-0.0339,-0.0352,-0.0352,-0.0351,-0.0207,-0.0359,-0.0358,-0.0357,-0.0154,-0.0149,-0.0143,0,0,0,0,0,0,-0.0187,-0.0193,-0.0248,-0.0226,-0.0234,-0.0278,-0.029,-0.0299,-0.0307,-0.033,-0.0336,-0.0336,-0.0353,-0.0353,-0.0306,-0.0212,-0.0357,-0.0356,-0.016,-0.0153,-0.0146,0.0021,0,0,0,0,0,0,-0.0185,-0.0192,-0.019,-0.0226,-0.0235,-0.023,-0.0289,-0.0298,-0.0309,-0.0315,-0.0332,-0.0336,-0.0355,-0.0307,-0.0305,-0.0213,-0.0355,-0.0166,-0.0157,-0.0148,0.0009,0.0033,0.0053,0,0,0,0,0,-0.0182,-0.0156,-0.019,-0.0196,-0.0234,-0.0228,-0.0231,-0.0269,-0.0307,-0.0288,-0.0293,-0.0335,-0.0248,-0.0303,-0.0301,-0.0206,-0.0171,-0.0159,-0.0149,-0.0001,0.0028,0.0052,0,0,0,0,0,0,-0.0107,-0.0162,-0.02,-0.019,-0.0205,-0.0239,-0.0219,-0.026,-0.0252,-0.0253,-0.0291,-0.0291,-0.0208,-0.0228,-0.0288,-0.0114,-0.0208,-0.0196,-0.0096,-0.0069,-0.0047,0.0003,-0.0354,0,0,0,0,0,-0.0095,-0.0099,-0.0147,-0.0133,-0.0137,-0.0182,-0.0185,-0.0212,-0.0217,-0.0219,-0.0231,-0.0214,-0.0158,-0.0136,-0.0107,-0.0025,-0.0025,0.0046,0.0068,0.0086,0.0134,0.0229,0.0264,-0.0108,-0.0108,-0.0108,0,0,-0.0058,-0.009,-0.009,-0.0118,-0.0132,-0.0095,-0.0186,-0.0173,-0.0125,-0.0214,-0.0144,-0.0146,-0.012,-0.0018,0.0019,-0.0027,0.0186,0.01,0.0115,0.0153,0.0244,0.028,0.0312,-0.0101,-0.0102,-0.0103,0,0,0.004,-0.0015,0.0024,0.0014,-0.0005,-0.0024,-0.0019,-0.0048,-0.0042,0.001,-0.0012,0.0051,0.0085,0.0153,0.0187,0.0353,0.0295,0.0351,0.0507,0.0599,0.063,0.0658,0.0667,0.0694,0.0366,0.0367,0.0367,0,0.0098,0.0117,0.0044,0.0085,0.0102,0.0017,0.0086,0.0092,0.0086,0.0131,0.006,0.0194,0.0191,0.0375,0.0431,0.0409,0.041,0.0396,0.0627,0.0655,0.068,0.0683,0.0711,0.0376,0.0375,0.0374,0.0373,0,0.0222,0.0238,0.027,0.0286,0.03,0.0342,0.0329,0.0359,0.0336,0.0344,0.0474,0.0478,0.0562,0.0581,0.0552,0.0758,0.068,0.0635,0.0554,0.0728,0.0719,0.0745,0.039,0.0386,0.0383,0.0381,0,0,0.037,0.0359,0.0374,0.0401,0.0404,0.0431,0.053,0.0604,0.0683,0.069,0.0822,0.0917,0.0888,0.093,0.0911,0.0993,0.1144,0.0896,0.0896,0.0894,0.1293,0.114,0.1151,0.1128,0.1135,0.114,0.1198,0,0.0502,0.0593,0.0567,0.0684,0.0729,0.07,0.0797,0.0851,0.0877,0.0976,0.1022,0.1118,0.1032,0.1069,0.1153,0.1152,0.1227,0.1129,0.1136,0.1136,0.0973,0.1184,0.1096,0.1135,0.1223,0.1227,0.123,0,0.0646,0.0679,0.0795,0.0854,0.088,0.0945,0.1067,0.114,0.1255,0.1278,0.1381,0.1373,0.1522,0.1393,0.1519,0.1451,0.1407,0.1383,0.1383,0.1213,0.1036,0.0987,0.1177,0.0881,0.1269,0.1266,0.1263,0,0.0762,0.0849,0.0938,0.0956,0.1016,0.1092,0.1142,0.1244,0.1322,0.1469,0.153,0.1666,0.172,0.1749,0.1668,0.1611,0.1757,0.1664,0.1492,0.1475,0.1394,0.136,0.1301,0.1781,0.1781,0.1781,0.1781,0,0.0894,0.0969,0.0992,0.1035,0.1162,0.1185,0.1336,0.1398,0.1523,0.1642,0.1684,0.1798,0.1812,0.1857,0.1783,0.1719,0.185,0.1581,0.1526,0.1441,0.1412,0.1138,0.0962,0.1783,0.1782,0.1782,0.1782,0,0.0982,0.1002,0.1093,0.117,0.1203,0.1286,0.1396,0.15,0.1604,0.1765,0.1817,0.1933,0.1999,0.1964,0.1995,0.184,0.1615,0.1734,0.1584,0.1511,0.1034,0.0869,0.0819,0.0627,0.1581,0.1578,0.1576,0,0.1019,0.1072,0.1158,0.12,0.123,0.1341,0.1416,0.1527,0.1627,0.1839,0.1926,0.2043,0.2137,0.2101,0.1907,0.178,0.1541,0.1525,0.1422,0.1052,0.0831,0.0756,0.0592,0.1364,0.136,0.1357,0.1354,0,0.1069,0.1095,0.1148,0.1238,0.1314,0.142,0.1535,0.1622,0.1772,0.1907,0.2086,0.2193,0.2161,0.2039,0.182,0.1669,0.1241,0.1448,0.1166,0.0763,0.059,0.036,0.1204,0.1326,0.1329,0.1331,0.1332,0.1334,0.1072,0.1112,0.117,0.1261,0.1355,0.1484,0.1576,0.1704,0.1868,0.2093,0.2183,0.2389,0.2193,0.1916,0.1587,0.0949,0.1017,0.0749,0.0612,0.0595,0.0333,0.1061,0.1044,0.1045,0.1046,0.1046,0.1047,0,0.1047,0.1099,0.1184,0.1293,0.1398,0.1463,0.164,0.1744,0.1916,0.2183,0.2349,0.248,0.2016,0.1592,0.0803,0.0255,0.0058,-0.0042,-0.0152,-0.0259,0.0492,0.0397,0.0117,0.0117,0.0118,0.0118,0.0118,0.0119,0.1026,0.1085,0.1144,0.1294,0.1387,0.1539,0.1642,0.1812,0.203,0.2379,0.2635,0.2862,0.2664,0.1063,-0.0128,-0.0457,-0.0875,-0.0935,-0.113,-0.064,-0.0576,-0.0515,-0.0643,-0.1135,-0.1137,-0.1832,-0.184,-0.1845]}],[{"header":{"parameterUnit":"m.s-1","parameterCategory":2,"la1":30.2991,"la2":30.254,"lo1":-89.0895,"lo2":-89.0444,"dy":0.0017,"dx":0.0017,"nx":28,"ny":28,"refTime":"2023-07-29T21:00:00:Z","depth":"2","parameterNumber":2,"parameterNumberName":"U-component_of_CURRENTS"},"data":[0,0,0,0,0,0,0,0,0,0,0,0,0,0,0,0,0,0,0,0,0,0,0,0,0,0,0,0,0,0,0,0,0,0,0,0,0,0,0,0,0,0,0,0,0,0,0,0,0,0,0,0,0,0,0,0,0,0,0.1445,0.1445,0,0.1448,0.1448,0.1448,0.143,0.143,0.1429,0.1429,0.1456,0.1457,0.1458,0,0,0,0,0,0,0,0,0,0,0,0,0,0.1397,0.1398,0.1445,0.1445,0.1446,0.1448,0.1448,0.1447,0.143,0.143,0.1429,0.1429,0.1456,0.1457,0.1458,0,0,0,0,0,0,0,0,0,0,0,0,0,0.1408,0.1398,0.1445,0.1439,0.1439,0.1448,0.1448,0.1447,0.143,0.143,0.1429,0.1429,0.1456,0.1457,0.1458,0.1473,0,0,0.1463,0.1463,0,0,0,0,0,0,0,0,0.1407,0.1409,0.144,0.144,0.144,0.1441,0.1441,0.1458,0.143,0.143,0.1429,0.1429,0.1456,0.1457,0.1454,0.1475,0.1476,0.1463,0.1464,0.1464,0.1465,0,0,0,0,0,0,0,0.1406,0.1409,0.1443,0.144,0.144,0.1428,0.1429,0.1444,0.1443,0.143,0.143,0.1435,0.1455,0.1452,0.1454,0.1476,0.1463,0.1464,0.1465,0.1465,0.1658,0.1662,0,0,0,0,0,0,0.1414,0.1408,0.1443,0.1443,0.1426,0.1429,0.143,0.1438,0.1442,0.1443,0.1435,0.1434,0.145,0.1453,0.1455,0.1588,0.1464,0.1465,0.1466,0.1654,0.1659,0.1664,0,0,0,0,0,0,0.1413,0.1418,0.1443,0.1428,0.1431,0.1431,0.144,0.1439,0.145,0.1446,0.1447,0.145,0.145,0.1453,0.1504,0.1584,0.1466,0.1467,0.1649,0.1656,0.1661,0.178,0,0,0,0,0,0,0.1412,0.1417,0.1426,0.1429,0.1432,0.1465,0.144,0.1439,0.1455,0.1454,0.1459,0.146,0.145,0.1502,0.1505,0.1584,0.1468,0.1643,0.1652,0.1659,0.1771,0.179,0.1806,0,0,0,0,0,0.141,0.1427,0.1427,0.1431,0.1445,0.1467,0.1468,0.1463,0.1456,0.147,0.1488,0.1461,0.1557,0.1506,0.1509,0.159,0.164,0.1649,0.1659,0.1763,0.1786,0.1806,0,0,0,0,0,0,0.1404,0.1427,0.1427,0.1448,0.1464,0.1465,0.1478,0.1477,0.1499,0.1504,0.1495,0.1499,0.1582,0.1572,0.1516,0.1676,0.1603,0.1613,0.1681,0.1703,0.172,0.1732,0.147,0,0,0,0,0,0.141,0.1432,0.1448,0.1465,0.1478,0.1481,0.149,0.1494,0.1512,0.152,0.1535,0.1569,0.1623,0.1647,0.168,0.175,0.1727,0.1815,0.1832,0.1847,0.1864,0.1896,0.1917,0.1696,0.1695,0.1695,0,0,0.1408,0.1427,0.1435,0.1466,0.1476,0.1516,0.1486,0.1512,0.156,0.1522,0.1598,0.1623,0.1655,0.1746,0.1784,0.1746,0.1899,0.1859,0.1871,0.188,0.1908,0.1929,0.1948,0.1702,0.1701,0.17,0,0,0.1426,0.1439,0.1467,0.1494,0.1528,0.1543,0.1559,0.1586,0.1613,0.1681,0.169,0.1765,0.1821,0.1877,0.1909,0.2046,0.1989,0.2067,0.2165,0.2197,0.2214,0.2229,0.2217,0.223,0.2078,0.2078,0.2078,0,0.1418,0.1465,0.1478,0.1523,0.1554,0.1565,0.1612,0.165,0.1697,0.1737,0.1725,0.1868,0.1893,0.2025,0.209,0.2086,0.2071,0.2073,0.2216,0.223,0.2243,0.2227,0.224,0.2085,0.2084,0.2083,0.2083,0,0.1467,0.1508,0.1531,0.1598,0.1636,0.1676,0.1735,0.179,0.1827,0.1864,0.1991,0.204,0.2122,0.2168,0.2174,0.2311,0.2258,0.2226,0.2149,0.2272,0.2248,0.2259,0.2095,0.2092,0.209,0.2088,0,0,0.1432,0.1541,0.1551,0.1593,0.168,0.171,0.1819,0.1908,0.1972,0.2055,0.2148,0.2289,0.2306,0.2348,0.2379,0.2433,0.2522,0.2384,0.2383,0.235,0.2561,0.2469,0.2471,0.2505,0.2508,0.251,0.2501,0,0.1461,0.1555,0.1612,0.1704,0.1753,0.1821,0.1912,0.2001,0.2073,0.2168,0.2264,0.2359,0.2378,0.2427,0.2496,0.2519,0.256,0.2526,0.2467,0.2465,0.235,0.2485,0.2363,0.2341,0.2511,0.2513,0.2514,0,0.1486,0.1551,0.1639,0.1757,0.1785,0.1847,0.198,0.2063,0.2206,0.2264,0.2386,0.244,0.2587,0.2553,0.2664,0.2637,0.2621,0.2621,0.2619,0.25,0.2395,0.2252,0.2353,0.2531,0.253,0.2529,0.2527,0,0.1439,0.1568,0.1636,0.1675,0.181,0.187,0.195,0.2087,0.2157,0.2321,0.2384,0.2539,0.261,0.2658,0.2695,0.268,0.2758,0.2718,0.2614,0.2603,0.2474,0.2449,0.277,0.277,0.2771,0.2771,0.2771,0,0.1438,0.1486,0.1616,0.1647,0.1727,0.1841,0.1929,0.2036,0.2179,0.2265,0.242,0.2514,0.2641,0.2705,0.2716,0.2708,0.277,0.266,0.2618,0.2512,0.2491,0.2632,0.2616,0.277,0.277,0.277,0.277,0,0.135,0.1442,0.1507,0.1652,0.1695,0.1743,0.1885,0.1951,0.2109,0.2228,0.2289,0.2499,0.2601,0.2677,0.2743,0.2713,0.2718,0.2678,0.253,0.2472,0.253,0.2521,0.258,0.2577,0.2575,0.2573,0.2571,0,0.1306,0.1334,0.1463,0.1494,0.1549,0.164,0.1701,0.188,0.1961,0.2209,0.2265,0.2431,0.253,0.2604,0.262,0.2615,0.2645,0.244,0.2408,0.2569,0.2522,0.2516,0.2511,0.2276,0.2272,0.2269,0.2266,0,0.1204,0.1244,0.1298,0.1369,0.143,0.1505,0.1623,0.168,0.19,0.2022,0.2192,0.2298,0.243,0.2434,0.2444,0.2407,0.2445,0.2369,0.2605,0.2338,0.228,0.2234,0.2239,0.2237,0.224,0.2242,0.2244,0.2245,0.1095,0.1104,0.1178,0.1239,0.1307,0.1384,0.1426,0.1572,0.1695,0.1886,0.2016,0.2128,0.2234,0.2211,0.2174,0.2147,0.2275,0.2181,0.2192,0.2207,0.2169,0.211,0.2026,0.2027,0.2029,0.203,0.2031,0,0.0969,0.1012,0.1053,0.1138,0.1179,0.1264,0.1381,0.1432,0.1555,0.1728,0.1842,0.1751,0.1831,0.1924,0.1887,0.1886,0.1873,0.1784,0.1794,0.1825,0.1852,0.1796,0.1553,0.1551,0.155,0.1548,0,0,0.0902,0.091,0.0956,0.1002,0.1065,0.111,0.1163,0.1264,0.1392,0.1446,0.1508,0.1694,0.1865,0.1672,0.1685,0.1635,0.1697,0.1559,0.1953,0.1996,0.202,0.2102,0.2053,0,0,0,0,0]},{"header":{"parameterUnit":"m.s-1","parameterCategory":2,"la1":30.2991,"la2":30.254,"lo1":-89.0895,"lo2":-89.0444,"dy":0.0017,"dx":0.0017,"nx":28,"ny":28,"refTime":"2023-07-29T21:00:00:Z","depth":"2","parameterNumber":3,"parameterNumberName":"V-component_of_CURRENTS"},"data":[0,0,0,0,0,0,0,0,0,0,0,0,0,0,0,0,0,0,0,0,0,0,0,0,0,0,0,0,0,0,0,0,0,0,0,0,0,0,0,0,0,0,0,0,0,0,0,0,0,0,0,0,0,0,0,0,0,0,-0.0605,-0.0605,0,-0.0598,-0.0598,-0.0598,-0.0592,-0.0593,-0.0593,-0.0593,-0.0547,-0.0545,-0.0544,0,0,0,0,0,0,0,0,0,0,0,0,0,-0.0609,-0.0608,-0.0605,-0.0605,-0.0605,-0.0598,-0.0598,-0.0598,-0.0592,-0.0593,-0.0593,-0.0593,-0.0547,-0.0546,-0.0544,0,0,0,0,0,0,0,0,0,0,0,0,0,-0.0602,-0.0608,-0.0605,-0.0604,-0.0604,-0.0598,-0.0598,-0.0597,-0.0592,-0.0593,-0.0593,-0.0593,-0.0548,-0.0546,-0.0544,-0.0524,0,0,-0.0537,-0.0536,0,0,0,0,0,0,0,0,-0.0603,-0.0602,-0.0604,-0.0604,-0.0604,-0.0599,-0.0583,-0.0572,-0.0592,-0.0594,-0.0593,-0.0593,-0.0562,-0.0559,-0.0554,-0.0522,-0.052,-0.0537,-0.0536,-0.0535,-0.0534,0,0,0,0,0,0,0,-0.0603,-0.0602,-0.0599,-0.0604,-0.0604,-0.0603,-0.0602,-0.058,-0.0573,-0.0594,-0.0594,-0.0598,-0.0562,-0.0556,-0.0552,-0.052,-0.0537,-0.0535,-0.0534,-0.0533,-0.0472,-0.0472,0,0,0,0,0,0,-0.0609,-0.0603,-0.06,-0.0599,-0.0607,-0.0602,-0.0601,-0.0598,-0.0574,-0.0572,-0.0597,-0.0597,-0.0559,-0.0555,-0.0551,-0.0494,-0.0535,-0.0533,-0.0532,-0.0473,-0.0472,-0.0472,0,0,0,0,0,0,-0.0609,-0.0609,-0.06,-0.0604,-0.0603,-0.0602,-0.0598,-0.0598,-0.0593,-0.0578,-0.0575,-0.0594,-0.0559,-0.0554,-0.0531,-0.0494,-0.0532,-0.053,-0.0473,-0.0473,-0.0472,-0.0402,0,0,0,0,0,0,-0.0609,-0.0609,-0.0607,-0.0604,-0.0603,-0.0588,-0.0598,-0.0597,-0.0596,-0.0596,-0.0574,-0.057,-0.0559,-0.0534,-0.0529,-0.0491,-0.0528,-0.0473,-0.0473,-0.0472,-0.0404,-0.0399,-0.0394,0,0,0,0,0,-0.0609,-0.06,-0.0607,-0.0607,-0.0601,-0.0588,-0.0586,-0.0586,-0.0595,-0.0584,-0.0576,-0.057,-0.0527,-0.0532,-0.0526,-0.0487,-0.0474,-0.0473,-0.0472,-0.0407,-0.04,-0.0394,0,0,0,0,0,0,-0.0599,-0.0599,-0.0606,-0.0597,-0.0593,-0.0588,-0.0579,-0.0585,-0.0571,-0.057,-0.0563,-0.0557,-0.0527,-0.0525,-0.0532,-0.0473,-0.05,-0.0498,-0.0453,-0.0446,-0.0441,-0.0421,-0.0526,0,0,0,0,0,-0.0598,-0.0589,-0.0592,-0.0583,-0.0581,-0.0582,-0.0579,-0.0577,-0.0568,-0.0563,-0.0548,-0.0536,-0.0518,-0.0498,-0.0487,-0.0447,-0.0492,-0.0423,-0.0418,-0.0413,-0.0395,-0.0457,-0.0456,-0.0469,-0.0469,-0.0469,0,0,-0.0593,-0.0591,-0.0587,-0.058,-0.0576,-0.0548,-0.0579,-0.0566,-0.0535,-0.0558,-0.051,-0.0519,-0.051,-0.0468,-0.0453,-0.0458,-0.0436,-0.0412,-0.0407,-0.0392,-0.0456,-0.0455,-0.0454,-0.0469,-0.0469,-0.0469,0,0,-0.0561,-0.0574,-0.0549,-0.0539,-0.0532,-0.0528,-0.0525,-0.0516,-0.0505,-0.047,-0.0484,-0.0477,-0.0436,-0.0425,-0.0413,-0.0376,-0.0417,-0.037,-0.0307,-0.0367,-0.0367,-0.0367,-0.0435,-0.0441,-0.0355,-0.0355,-0.0354,0,-0.0555,-0.052,-0.0539,-0.0506,-0.0486,-0.0514,-0.047,-0.0462,-0.0444,-0.0427,-0.0444,-0.0411,-0.0411,-0.0364,-0.0349,-0.036,-0.0409,-0.0326,-0.036,-0.0361,-0.0362,-0.0432,-0.044,-0.0351,-0.0351,-0.0352,-0.0352,0,-0.0495,-0.0467,-0.045,-0.0413,-0.0395,-0.0366,-0.0358,-0.0338,-0.0336,-0.0331,-0.03,-0.0314,-0.0289,-0.0295,-0.03,-0.0292,-0.0331,-0.0358,-0.0373,-0.0356,-0.0432,-0.0441,-0.0346,-0.0347,-0.0348,-0.0349,0,0,-0.0471,-0.0418,-0.0408,-0.0366,-0.0341,-0.0312,-0.0266,-0.0228,-0.019,-0.0195,-0.0151,-0.0144,-0.017,-0.0162,-0.0184,-0.0229,-0.0288,-0.0282,-0.0287,-0.0344,-0.0433,-0.0442,-0.0454,-0.0325,-0.0326,-0.0327,-0.0487,0,-0.0412,-0.0327,-0.0316,-0.0224,-0.0176,-0.0176,-0.0121,-0.0095,-0.0089,-0.0059,-0.0092,-0.0061,-0.0113,-0.0096,-0.0151,-0.025,-0.0308,-0.0242,-0.0444,-0.045,-0.0456,-0.0463,-0.0412,-0.0549,-0.0497,-0.0499,-0.05,0,-0.0344,-0.0294,-0.0197,-0.0109,-0.0088,-0.0035,0.0041,0.0083,0.0098,0.0103,0.01,0.0067,0.0033,-0.0028,-0.0194,-0.0151,-0.0277,-0.0374,-0.0384,-0.0417,-0.0476,-0.0556,-0.0569,-0.0517,-0.0516,-0.0515,-0.0513,0,-0.0294,-0.0202,-0.0118,-0.009,-0.0006,0.0051,0.0099,0.0137,0.0188,0.0204,0.0227,0.0164,0.0145,-0.0017,-0.0201,-0.0201,-0.0418,-0.045,-0.0583,-0.0587,-0.0593,-0.0594,-0.0583,-0.0583,-0.0583,-0.0582,-0.0582,0,-0.0228,-0.0153,-0.0082,-0.0031,0.0085,0.012,0.023,0.0265,0.0314,0.0366,0.0318,0.0328,0.0145,0.0008,-0.0182,-0.0408,-0.041,-0.0571,-0.0624,-0.0568,-0.0566,-0.057,-0.0567,-0.0588,-0.0587,-0.0586,-0.0585,0,-0.0171,-0.0133,-0.0025,0.0074,0.0116,0.0203,0.0324,0.039,0.0428,0.049,0.0506,0.0443,0.0257,0.0044,-0.0229,-0.0368,-0.0594,-0.0679,-0.06,-0.0639,-0.0731,-0.0722,-0.0839,-0.0841,-0.0842,-0.0843,-0.0844,0,-0.0126,-0.0071,0.005,0.0116,0.0172,0.0292,0.0373,0.0447,0.0508,0.0547,0.0575,0.0453,0.0346,-0.0037,-0.0304,-0.0628,-0.0666,-0.0761,-0.0743,-0.0716,-0.0756,-0.0744,-0.0734,-0.0743,-0.0743,-0.0743,-0.0743,0,-0.0041,-0.0009,0.007,0.0195,0.0295,0.0405,0.052,0.0585,0.065,0.0685,0.0678,0.06,0.0276,-0.0013,-0.0394,-0.0598,-0.0698,-0.0771,-0.0779,-0.0667,-0.0633,-0.0669,-0.066,-0.0743,-0.0743,-0.0743,-0.0743,-0.0743,0.002,0.0081,0.0168,0.029,0.0399,0.0513,0.0613,0.069,0.0777,0.083,0.0727,0.0636,0.0332,-0.0146,-0.0449,-0.0715,-0.0744,-0.0825,-0.0822,-0.082,-0.0762,-0.0729,-0.0848,-0.0849,-0.0849,-0.085,-0.085,0,0.0095,0.0156,0.0262,0.0402,0.0522,0.0581,0.0712,0.0788,0.0877,0.0886,0.0849,0.0546,0.0238,-0.0082,-0.0467,-0.0733,-0.073,-0.0806,-0.0741,-0.0741,-0.0741,-0.0675,-0.0741,-0.0741,-0.0741,-0.0741,0,0,0.0139,0.0237,0.0281,0.0481,0.06,0.0777,0.0863,0.0935,0.0982,0.0944,0.0903,0.0752,0.0358,0.0098,-0.028,-0.048,-0.0531,-0.0519,-0.0584,-0.0462,-0.0457,-0.0743,-0.0641,0,0,0,0,0]}],[{"header":{"parameterUnit":"m.s-1","parameterCategory":2,"la1":30.2991,"la2":30.254,"lo1":-89.0895,"lo2":-89.0444,"dy":0.0017,"dx":0.0017,"nx":28,"ny":28,"refTime":"2023-07-29T21:00:00:Z","depth":"4","parameterNumber":2,"parameterNumberName":"U-component_of_CURRENTS"},"data":[0,0,0,0,0,0,0,0,0,0,0,0,0,0,0,0,0,0,0,0,0,0,0,0,0,0,0,0,0,0,0,0,0,0,0,0,0,0,0,0,0,0,0,0,0,0,0,0,0,0,0,0,0,0,0,0,0,0,0.0726,0.0726,0,0.0788,0.0789,0.0789,0.0846,0.0847,0.0848,0.0849,0.0896,0.0896,0.0897,0,0,0,0,0,0,0,0,0,0,0,0,0,0.0624,0.0626,0.0726,0.0727,0.0727,0.0788,0.0789,0.0789,0.0846,0.0847,0.0848,0.0849,0.0896,0.0896,0.0897,0,0,0,0,0,0,0,0,0,0,0,0,0,0.0674,0.0626,0.0725,0.0764,0.0768,0.0788,0.0789,0.079,0.0846,0.0847,0.0849,0.085,0.0896,0.0896,0.0897,0.0876,0,0,0.0899,0.0899,0,0,0,0,0,0,0,0,0.0671,0.0677,0.0758,0.0762,0.0766,0.0812,0.077,0.0818,0.0846,0.0815,0.0849,0.085,0.0866,0.087,0.0877,0.0879,0.0881,0.0899,0.09,0.09,0.09,0,0,0,0,0,0,0,0.0668,0.0675,0.0749,0.0759,0.0764,0.0768,0.0776,0.0779,0.0832,0.0818,0.0822,0.0831,0.0869,0.0876,0.0878,0.0881,0.0899,0.09,0.09,0.0901,0.0962,0.0963,0,0,0,0,0,0,0.0663,0.0672,0.0747,0.0751,0.0722,0.0769,0.0778,0.0795,0.0832,0.0839,0.083,0.0834,0.0874,0.0877,0.088,0.0935,0.09,0.0901,0.0901,0.0961,0.0963,0.0964,0,0,0,0,0,0,0.0661,0.067,0.0744,0.0713,0.0723,0.077,0.0787,0.0796,0.0834,0.0842,0.0849,0.0864,0.0875,0.0879,0.0915,0.0934,0.0901,0.0902,0.096,0.0962,0.0963,0.0995,0,0,0,0,0,0,0.0658,0.0669,0.0694,0.0713,0.0725,0.0777,0.0787,0.0796,0.0836,0.0843,0.0873,0.0877,0.0876,0.0914,0.0915,0.0935,0.0902,0.0958,0.0961,0.0963,0.0993,0.0998,0.1003,0,0,0,0,0,0.0654,0.068,0.0695,0.0705,0.0754,0.0778,0.0784,0.0819,0.0837,0.0858,0.0883,0.0877,0.0929,0.0915,0.0917,0.0937,0.0957,0.096,0.0963,0.0991,0.0997,0.1002,0,0,0,0,0,0,0.0648,0.0689,0.0706,0.0744,0.0768,0.0788,0.0814,0.0833,0.0869,0.0883,0.089,0.0896,0.093,0.0933,0.0917,0.0963,0.0943,0.0946,0.0964,0.097,0.0974,0.0985,0.0903,0,0,0,0,0,0.0657,0.0685,0.072,0.0746,0.0765,0.0793,0.0814,0.0836,0.0862,0.0881,0.0903,0.0924,0.0936,0.0955,0.0962,0.099,0.099,0.1006,0.101,0.1015,0.1026,0.1036,0.1042,0.0973,0.0973,0.0973,0,0,0.0659,0.0684,0.0701,0.0747,0.0769,0.0799,0.081,0.0846,0.0875,0.0877,0.0931,0.0938,0.0945,0.0975,0.0991,0.0986,0.1037,0.1018,0.1021,0.1031,0.1039,0.1046,0.1052,0.0975,0.0974,0.0974,0,0,0.0661,0.0703,0.0726,0.0755,0.0798,0.0817,0.0835,0.0875,0.0904,0.095,0.0952,0.0979,0.1013,0.1016,0.1022,0.106,0.1055,0.1067,0.111,0.1119,0.1124,0.1129,0.1144,0.115,0.1079,0.1079,0.1079,0,0.0665,0.0702,0.0735,0.0766,0.0795,0.0829,0.0862,0.089,0.0938,0.0963,0.0978,0.1026,0.103,0.1053,0.1074,0.1069,0.108,0.1083,0.1124,0.1129,0.1133,0.1147,0.1153,0.1081,0.108,0.108,0.108,0,0.0679,0.0722,0.0738,0.0791,0.0825,0.0857,0.0902,0.0944,0.0986,0.1013,0.1062,0.1073,0.1105,0.1107,0.1108,0.1141,0.114,0.112,0.1106,0.1142,0.1155,0.1161,0.1083,0.1083,0.1082,0.1082,0,0,0.0652,0.0734,0.0743,0.0777,0.0847,0.0871,0.0927,0.0983,0.1025,0.1074,0.1124,0.1148,0.1165,0.1172,0.1168,0.1185,0.1224,0.1181,0.118,0.1191,0.1259,0.1229,0.1232,0.1215,0.1216,0.1217,0.1257,0,0.0657,0.0715,0.0758,0.0818,0.0855,0.0913,0.0962,0.1017,0.107,0.1127,0.1149,0.1193,0.1185,0.121,0.1224,0.1222,0.1241,0.1216,0.1228,0.1229,0.1192,0.1238,0.122,0.1261,0.1263,0.1264,0.1264,0,0.0656,0.0699,0.076,0.0844,0.0868,0.0912,0.1,0.1049,0.1128,0.1172,0.1221,0.1246,0.1285,0.1269,0.1297,0.1287,0.1286,0.1281,0.1282,0.1247,0.1209,0.1217,0.1274,0.1274,0.1273,0.1272,0.1272,0,0.0613,0.07,0.0749,0.0779,0.0878,0.0923,0.0981,0.1067,0.112,0.1206,0.1256,0.1297,0.1334,0.1339,0.1355,0.1334,0.1382,0.1339,0.1308,0.1306,0.1304,0.1298,0.1358,0.1358,0.1358,0.1358,0.1358,0,0.0599,0.064,0.0739,0.0769,0.0835,0.0912,0.099,0.1055,0.1152,0.1213,0.1278,0.1326,0.1358,0.1394,0.1383,0.138,0.1406,0.1332,0.1319,0.1318,0.1313,0.1308,0.1302,0.136,0.1359,0.1359,0.1359,0,0.0548,0.0612,0.0673,0.0782,0.0819,0.0869,0.0996,0.1047,0.1151,0.1234,0.127,0.1366,0.1418,0.1445,0.1462,0.1418,0.1411,0.14,0.1425,0.1411,0.1318,0.1313,0.1357,0.1357,0.1356,0.1356,0.1356,0,0.053,0.0557,0.0668,0.0705,0.0761,0.0849,0.0906,0.103,0.1087,0.1246,0.1273,0.138,0.1429,0.1431,0.146,0.1455,0.1432,0.1419,0.1344,0.1337,0.132,0.1316,0.1312,0.1355,0.1355,0.1354,0.1354,0,0.0492,0.0534,0.0584,0.0661,0.0727,0.0795,0.0892,0.0933,0.1075,0.1172,0.126,0.1313,0.1377,0.1401,0.1428,0.141,0.1419,0.1412,0.1411,0.1341,0.1334,0.1317,0.1313,0.1352,0.1353,0.1353,0.1353,0,0.0461,0.0479,0.0547,0.0612,0.0682,0.0734,0.0794,0.088,0.096,0.1138,0.1162,0.1275,0.1365,0.138,0.1397,0.1399,0.136,0.1293,0.1297,0.13,0.1265,0.1246,0.1241,0,0,0,0,0,0.043,0.0446,0.0496,0.0565,0.0629,0.0675,0.0781,0.0844,0.0978,0.1013,0.1095,0.1157,0.1227,0.1281,0.1269,0.136,0.1353,0.1339,0.1274,0.1342,0.1344,0.1309,0,0,0,0,0,0,0.0407,0.0444,0.0472,0.0513,0.0548,0.0617,0.068,0.077,0.0803,0.094,0.0978,0.1086,0.1157,0.1215,0.1243,0.126,0.1197,0.1412,0.141,0.1341,0.1343,0.1345,0.1309,0,0,0,0,0]},{"header":{"parameterUnit":"m.s-1","parameterCategory":2,"la1":30.2991,"la2":30.254,"lo1":-89.0895,"lo2":-89.0444,"dy":0.0017,"dx":0.0017,"nx":28,"ny":28,"refTime":"2023-07-29T21:00:00:Z","depth":"4","parameterNumber":3,"parameterNumberName":"V-component_of_CURRENTS"},"data":[0,0,0,0,0,0,0,0,0,0,0,0,0,0,0,0,0,0,0,0,0,0,0,0,0,0,0,0,0,0,0,0,0,0,0,0,0,0,0,0,0,0,0,0,0,0,0,0,0,0,0,0,0,0,0,0,0,0,-0.0015,-0.0016,0,-0.0093,-0.0094,-0.0095,-0.0142,-0.0142,-0.0142,-0.0143,-0.0219,-0.0221,-0.0223,0,0,0,0,0,0,0,0,0,0,0,0,0,0.007,0.0069,-0.0015,-0.0016,-0.0017,-0.0093,-0.0094,-0.0095,-0.0142,-0.0142,-0.0142,-0.0143,-0.0219,-0.0221,-0.0223,0,0,0,0,0,0,0,0,0,0,0,0,0,0.0017,0.0069,-0.0015,-0.005,-0.0054,-0.0092,-0.0094,-0.0095,-0.0142,-0.0142,-0.0142,-0.0143,-0.0218,-0.0221,-0.0223,-0.0232,0,0,-0.0232,-0.0233,0,0,0,0,0,0,0,0,0.002,0.0014,-0.0043,-0.0047,-0.0052,-0.0108,-0.0092,-0.0141,-0.0142,-0.0108,-0.0143,-0.0143,-0.0182,-0.0188,-0.0201,-0.0236,-0.0239,-0.0232,-0.0234,-0.0235,-0.0235,0,0,0,0,0,0,0,0.0024,0.0017,-0.0045,-0.0044,-0.005,-0.007,-0.0077,-0.0102,-0.0141,-0.0111,-0.0115,-0.0124,-0.0184,-0.0198,-0.0203,-0.024,-0.0232,-0.0234,-0.0236,-0.0237,-0.0364,-0.0366,0,0,0,0,0,0,0.0035,0.0021,-0.0043,-0.0048,-0.0016,-0.0071,-0.0079,-0.0089,-0.0141,-0.015,-0.0123,-0.0126,-0.0194,-0.02,-0.0206,-0.0264,-0.0235,-0.0237,-0.0239,-0.0362,-0.0364,-0.0366,0,0,0,0,0,0,0.0037,0.003,-0.004,-0.0015,-0.0026,-0.0072,-0.0083,-0.0091,-0.0115,-0.0151,-0.0159,-0.014,-0.0194,-0.0202,-0.0253,-0.0265,-0.0238,-0.0241,-0.036,-0.0363,-0.0365,-0.035,0,0,0,0,0,0,0.0039,0.0031,0.0024,-0.0015,-0.0027,-0.0069,-0.0083,-0.0092,-0.012,-0.0124,-0.0168,-0.0175,-0.0195,-0.0249,-0.0256,-0.0268,-0.0243,-0.0358,-0.0361,-0.0364,-0.0348,-0.0352,-0.0355,0,0,0,0,0,0.0043,0.0033,0.0025,0.0017,-0.0033,-0.0069,-0.0077,-0.0111,-0.012,-0.0133,-0.0175,-0.0174,-0.0275,-0.0253,-0.026,-0.0274,-0.0356,-0.036,-0.0364,-0.0347,-0.0351,-0.0355,0,0,0,0,0,0,0.006,0.0026,0.0016,-0.0005,-0.0035,-0.0077,-0.0094,-0.0113,-0.0155,-0.0163,-0.0194,-0.0205,-0.0253,-0.0273,-0.0248,-0.0325,-0.0316,-0.0322,-0.0301,-0.0305,-0.0308,-0.031,-0.0245,0,0,0,0,0,0.0064,0.0052,0.0014,-0.0002,-0.0018,-0.0055,-0.0074,-0.0096,-0.0137,-0.0155,-0.0188,-0.0232,-0.0274,-0.0297,-0.0333,-0.0371,-0.039,-0.0389,-0.0392,-0.0395,-0.0405,-0.045,-0.0457,-0.0379,-0.0379,-0.0379,0,0,0.0065,0.0047,0.0038,0.0002,-0.0024,-0.0054,-0.0068,-0.0099,-0.0128,-0.0156,-0.0207,-0.024,-0.0288,-0.0336,-0.0359,-0.0354,-0.0426,-0.04,-0.0401,-0.041,-0.0454,-0.0462,-0.0468,-0.0382,-0.0381,-0.0381,0,0,0.0057,0.0046,0.0027,0.0005,-0.0032,-0.0054,-0.0064,-0.011,-0.0135,-0.0187,-0.0217,-0.0265,-0.0325,-0.0363,-0.039,-0.0436,-0.0441,-0.0445,-0.0461,-0.0504,-0.051,-0.0516,-0.0536,-0.0544,-0.0447,-0.0447,-0.0447,0,0.0054,0.0033,0.0016,-0.0009,-0.0026,-0.0055,-0.0081,-0.0113,-0.017,-0.0193,-0.0206,-0.0309,-0.0342,-0.0405,-0.0428,-0.0441,-0.0459,-0.0434,-0.0505,-0.0511,-0.0517,-0.0537,-0.0546,-0.0447,-0.0447,-0.0447,-0.0447,0,0.0029,0.0013,0.0001,-0.0035,-0.0056,-0.008,-0.0119,-0.0147,-0.0177,-0.0213,-0.028,-0.0335,-0.0395,-0.0414,-0.0439,-0.0499,-0.0495,-0.0498,-0.0485,-0.0524,-0.0543,-0.0552,-0.0446,-0.0446,-0.0447,-0.0447,0,0,0.0006,-0.0013,-0.0021,-0.0025,-0.0068,-0.0084,-0.0127,-0.0173,-0.0199,-0.0262,-0.0305,-0.039,-0.0413,-0.0447,-0.0477,-0.0523,-0.0577,-0.0531,-0.0533,-0.0534,-0.0659,-0.0603,-0.0607,-0.0588,-0.059,-0.0591,-0.0649,0,-0.0016,-0.0038,-0.0053,-0.0078,-0.009,-0.0116,-0.0148,-0.0189,-0.0231,-0.0278,-0.0343,-0.0396,-0.0426,-0.0451,-0.0505,-0.0558,-0.0603,-0.056,-0.0638,-0.064,-0.0571,-0.0617,-0.0597,-0.0656,-0.0658,-0.0659,-0.066,0,-0.0046,-0.005,-0.0069,-0.0075,-0.0086,-0.0108,-0.0143,-0.0177,-0.0245,-0.0278,-0.0343,-0.0389,-0.047,-0.0485,-0.0601,-0.0571,-0.0621,-0.0663,-0.0665,-0.0628,-0.0602,-0.0617,-0.0677,-0.0676,-0.0675,-0.0673,-0.0672,0,-0.0036,-0.0062,-0.0064,-0.0071,-0.0093,-0.0107,-0.0126,-0.018,-0.0199,-0.0275,-0.0296,-0.0398,-0.0439,-0.0531,-0.0616,-0.0615,-0.0733,-0.0734,-0.0733,-0.0729,-0.0764,-0.0758,-0.0825,-0.0825,-0.0824,-0.0824,-0.0824,0,-0.0043,-0.0049,-0.0055,-0.0055,-0.006,-0.0085,-0.0105,-0.0138,-0.0184,-0.0199,-0.0289,-0.0317,-0.0456,-0.0533,-0.0618,-0.0696,-0.0733,-0.0748,-0.0749,-0.0756,-0.0748,-0.077,-0.0763,-0.0826,-0.0826,-0.0826,-0.0825,0,-0.0032,-0.0037,-0.0037,-0.0049,-0.0051,-0.0056,-0.0073,-0.0087,-0.0131,-0.0153,-0.0172,-0.0267,-0.0363,-0.0488,-0.0628,-0.0676,-0.0767,-0.0785,-0.0773,-0.0769,-0.0735,-0.0727,-0.0797,-0.0796,-0.0795,-0.0794,-0.0793,0,-0.0027,-0.0024,-0.0023,-0.0014,-0.0019,-0.0025,-0.0026,-0.0059,-0.0064,-0.011,-0.0112,-0.0209,-0.0279,-0.0423,-0.0566,-0.0721,-0.0738,-0.078,-0.0783,-0.0744,-0.0737,-0.0731,-0.0724,-0.0791,-0.0791,-0.0791,-0.079,0,-0.0019,-0.002,-0.0015,0.001,0.0017,0.0026,0.0027,0.0036,0.0008,-0.0028,-0.0042,-0.0131,-0.0234,-0.038,-0.0502,-0.0614,-0.0754,-0.0769,-0.0772,-0.0776,-0.0737,-0.0731,-0.0726,-0.0787,-0.0787,-0.0787,-0.0788,0,-0.0018,-0.001,0.0004,0.0028,0.0048,0.0076,0.007,0.0079,0.0075,0.0039,0.004,-0.0082,-0.0165,-0.0323,-0.0435,-0.0543,-0.0573,-0.0597,-0.061,-0.0616,-0.0548,-0.0472,-0.045,0,0,0,0,0,-0.0018,0.0,0.0024,0.0055,0.0082,0.0096,0.0108,0.0101,0.009,0.0103,0.0077,-0.0009,-0.0167,-0.0251,-0.0347,-0.0438,-0.0612,-0.0554,-0.0651,-0.0765,-0.077,-0.0716,0,0,0,0,0,0,-0.002,0.0002,0.0025,0.008,0.0111,0.014,0.0153,0.0144,0.0149,0.0128,0.0044,-0.0007,-0.0174,-0.0101,-0.0337,-0.0376,-0.0444,-0.0642,-0.0643,-0.0763,-0.0767,-0.077,-0.0717,0,0,0,0,0]}]]